Вернуться в каталог

STARLINK-11471

АктивенСвязьVLEO
NORAD 62225·PAYLOAD·🇺🇸 United States

Запущен Dec 5, 2024 с Vandenberg Space Force Base

Loading…

Ближайшие Пролёты (ближайшие 24 часа)

TLE

СвежийSource: CelesTrak SupGP

Эпоха: Sep 15, 2026, 02:53 UTC

1 62225C 24231H   26258.12062500 -.00034484  00000+0 -28384-3 0  2588
2 62225  53.1575 247.2332 0001247  87.5391  23.6825 15.69745286    15

Отслеживайте STARLINK-11471 в реальном времени с AllMySat

Download on the App Store